Regional Weather Roundup
Issued by NWS

Home | Current Version | Previous Version | Graphics & Text | Print | Product List | Glossary On
Versions: 1 2 3 4 5 6 7 8 9 10 11 12 13 14 15 16 17 18 19 20 21 22 23 24 25 26 27 28 29 30 31 32 33 34 35 36 37 38 39 40 41 42 43 44 45 46 47 48 49 50
856
ASUS43 KIND 280109
RWRIN

WEATHER ROUNDUP FOR INDIANA
NATIONAL WEATHER SERVICE INDIANAPOLIS IN
900 PM EDT THU APR 27 2017

NOTE: "FAIR" INDICATES FEW OR NO CLOUDS BELOW 12,000 FEET WITH NO
SIGNIFICANT WEATHER AND/OR OBSTRUCTIONS TO VISIBILITY.

* - STATION DOES NOT REPORT WEATHER SUCH AS PRECIPITATION OR FOG.

+ - STATION NOT QUALITY CONTROLLED BY THE NATIONAL WEATHER SERVICE.
    USE DATA WITH CAUTION...ESPECIALLY DEWPOINT AND RELATIVE
    HUMIDITY OBSERVATIONS.

INZ001>003-010>013-019-020-280200-
NORTHWEST INDIANA

CITY           SKY/WX    TMP DP  RH WIND       PRES   REMARKS
GARY /AIRPORT/ CLOUDY    48  37  66 SW15G26   29.80R
KNOX *+        CLOUDY    46  23  39 SW13      29.79R
LA PORTE +     CLOUDY    47  41  80 SW12      29.79R
MICHIGAN CITY+ CLOUDY    46  39  76 SW15G22   29.78R
MONTICELLO +   CLOUDY    48  42  79 SW12      29.81R
RENSSELAER +   CLOUDY    48  39  71 SW12G20   29.82R
VALPARAISO     CLOUDY    49  41  74 SW13      29.80R

$$

LMZ046-743>745-280200-
SOUTHERN LAKE MICHIGAN

STATION/POSITION TIME  TEMP    WIND        PRES    WAVE
                       AIR SEA DIR/SP/G            HT
                 (UTC) (F)     (DEG/KT/KT) (MB)    (FT)
BURNS HARBOR     0040   48     230/ 13/ 19 1008.5R
MICHIGAN CITY    0040   48     200/ 16/ 19   N/A
5NW MICH CITY    0100   47 47                N/A     3

$$

INZ004-005-014>016-021>024-280200-
NORTH CENTRAL INDIANA

CITY           SKY/WX    TMP DP  RH WIND       PRES   REMARKS
ELKHART        CLOUDY    48  39  71 SW14      29.77R
GOSHEN         CLOUDY    49  39  68 SW12      29.79R
LOGANSPORT +   CLOUDY    48  41  76 SW9       29.82R
PERU/GRISSOM   CLOUDY    50  45  81 W9        29.80R
ROCHESTER +    CLOUDY    50  43  76 W9        29.81R
SOUTH BEND     CLOUDY    47  41  80 SW12      29.79R
WARSAW +       CLOUDY    48  39  71 SW10      29.80R

$$

INZ006>009-017-018-025>027-280200-
NORTHEAST INDIANA

CITY           SKY/WX    TMP DP  RH WIND       PRES   REMARKS
ANGOLA *+      CLOUDY    48  43  81 W9        29.77R
AUBURN +       CLOUDY    50  43  76 SW8       29.80R
FORT WAYNE     CLOUDY    51  43  74 W9        29.81R
HUNTINGTON +   CLOUDY    49  44  82 W9        29.81R
KENDALLVILLE + CLOUDY    48  42  80 SW12      29.79R

$$

INZ028-029-035-036-043>045-051>053-280200-
WEST CENTRAL INDIANA

CITY           SKY/WX    TMP DP  RH WIND       PRES   REMARKS
CRAWFORDSVL +  CLOUDY    48  44  87 SW7       29.83R
GREENCASTLE +  CLOUDY    50  41  71 SW3       29.84R
LAFAYETTE      CLOUDY    48  43  82 SW5       29.83R
TERRE HAUTE    CLOUDY    52  44  74 S5        29.83R

$$

INZ030>032-037>040-046>048-054>057-064-065-280200-
CENTRAL INDIANA

CITY           SKY/WX    TMP DP  RH WIND       PRES   REMARKS
CP ATTERBURY + PTCLDY    54  45  71 SW9       29.84R
COLUMBUS       MOCLDY    55  41  58 SW7       29.85R
FISHERS *+     PTCLDY    50  45  81 SW6       29.84
FRANKFORT +    CLOUDY    52  45  77 W9        29.83R
GREENWOOD *+   CLOUDY    55  43  65 W7        29.84R
INDIANAPOLIS   MOCLDY    53  43  68 W10       29.83R
-EAGLE CREEK   CLOUDY    53  42  66 SW5       29.82R
KOKOMO +       CLOUDY    51  43  74 SW10      29.82R
MT COMFORT *+  MOCLDY    52  43  71 W9        29.83R
SHELBYVILLE    CLOUDY    57  43  59 W7        29.83R
ZIONSVILLE +   CLOUDY    50  45  82 SW6       29.83R

$$

INZ033-034-041-042-049-050-058-059-280200-
EAST CENTRAL INDIANA

CITY           SKY/WX    TMP DP  RH WIND       PRES   REMARKS
MUNCIE         PTCLDY    52  45  77 W6        29.81R
RICHMOND +     CLEAR     50  45  81 W6        29.83S

$$

INZ060-061-067>069-081>083-085>088-280200-
SOUTHWEST INDIANA

CITY           SKY/WX    TMP DP  RH WIND       PRES   REMARKS
EVANSVILLE     CLEAR     54  46  74 S3        29.87R
HUNTINGBURG *+ MOCLDY    55  49  80 SW3       29.86R
WASHINGTON +   CLEAR     52  44  72 W5        29.85R

$$

INZ062-063-066-070>080-084-089>092-280200-
SOUTH CENTRAL AND SOUTHEAST INDIANA

CITY           SKY/WX    TMP DP  RH WIND       PRES   REMARKS
BEDFORD +      PTCLDY    52  45  76 CALM      29.83
BLOOMINGTON    CLEAR     51  43  74 SW3       29.84R
MADISON *+     CLOUDY    54  46  76 S3        29.87R
NORTH VERNON + CLOUDY    54  46  76 W5        29.85R
SEYMOUR +      CLOUDY    54  46  76 W3        29.84R

$$





USA.gov is the U.S. government's official web portal to all federal, state and local government web resources and services.